CAPE
0 nan nan nan nan nan nan nan nan nan nan nan nan nan nan nan nan nan 0 nan nan nan nan nan nan nan nan 18 41 41 65 102 131 131 138 137 123 123 120 125 125 125 135 140 140 136 110 88 88 86 81 77 78 78 88 106 106 131 139 141 141 133 111 87 87 73 70 76 111 111 136 108 106 106 138 139 117 117 66 36 36 18 5 3 3 4
0 nan nan nan nan nan nan nan nan nan nan nan nan nan nan nan nan nan nan 0 0 nan nan nan nan nan nan 6 45 45 66 93 109 109 116 114 116 116 117 123 123 132 132 135 135 122 95 74 74 70 72 63 63 63 70 93 93 113 118 117 117 116 95 75 75 61 61 72 106 106 126 101 71 71 69 85 61 61 31 21 21 11 7 6 6 4
nan nan nan nan nan nan nan nan nan nan nan nan nan nan nan nan nan nan nan 1 1 1 nan nan nan nan nan 4 61 61 70 90 99 99 101 104 110 110 117 122 122 119 120 114 114 102 83 66 66 61 64 60 56 56 56 68 68 89 95 96 96 99 95 72 72 62 59 72 102 102 114 97 63 63 46 43 24 24 16 12 12 9 6 5 5 4
nan nan nan nan nan nan nan nan nan nan nan 1 1 1 0 1 0 0 0 1 1 6 3 0 0 nan 0 7 49 49 76 86 87 87 92 101 108 108 111 116 116 113 106 100 100 95 78 65 65 58 58 59 55 55 52 53 53 71 102 105 105 102 101 94 94 78 71 80 103 103 107 88 62 62 43 32 21 21 15 11 11 8 7 6 6 6
nan nan nan nan nan nan 0 0 0 0 2 2 1 1 1 2 2 2 2 5 5 9 5 2 2 1 1 7 34 34 73 82 86 86 92 97 106 106 106 105 105 100 95 90 90 89 80 67 67 61 58 58 55 55 47 50 50 87 135 159 159 124 113 98 98 89 85 87 106 106 98 79 51 51 37 26 17 17 13 10 10 9 9 7 7 8
nan nan 0 nan nan nan 0 1 4 4 7 3 3 3 4 4 6 6 8 6 6 8 7 7 7 8 7 5 32 32 68 81 81 81 87 90 96 96 94 93 93 92 88 88 88 86 80 71 71 62 59 59 55 55 53 66 66 108 138 141 141 111 94 91 91 88 87 94 112 112 95 76 52 52 34 23 15 15 11 11 11 11 10 9 9 8
nan nan 0 nan nan nan 0 1 5 5 4 4 6 6 9 12 14 14 17 15 15 14 14 17 17 20 19 21 46 46 67 69 71 71 69 72 76 76 81 83 83 87 84 86 86 87 84 74 74 68 64 62 68 68 83 105 105 105 107 105 105 86 72 81 81 82 81 95 114 114 98 73 51 51 32 19 13 13 9 9 9 13 12 9 9 8
nan nan nan nan nan nan nan 0 3 3 3 3 6 6 8 7 6 6 23 51 51 52 41 32 32 19 9 13 16 16 8 3 4 4 12 16 36 36 55 72 72 75 77 84 84 88 85 74 74 72 77 87 88 88 89 71 71 58 54 58 58 54 53 57 57 69 77 80 102 102 100 74 44 44 24 13 9 9 8 10 10 12 11 11 11 10
nan nan nan nan nan nan nan nan 2 2 3 3 6 6 4 4 6 6 19 36 36 45 35 24 24 13 7 12 13 13 16 18 7 7 10 3 8 8 37 63 63 72 71 73 73 81 80 69 69 68 72 71 67 67 59 54 54 46 42 46 46 48 43 45 45 60 71 71 93 93 93 68 37 37 23 13 8 8 8 9 9 10 12 12 12 11
0 0 nan nan nan nan nan nan 1 1 7 7 12 12 9 5 12 12 27 31 31 29 22 15 15 9 7 14 19 19 13 24 55 55 61 36 57 57 45 38 38 37 53 59 59 67 65 55 55 53 52 51 46 46 45 44 44 38 34 36 36 42 42 41 41 48 60 64 79 79 84 63 38 38 23 14 9 9 8 8 8 10 11 12 12 12
0 0 nan nan nan nan nan 0 1 1 8 9 11 11 14 15 18 18 24 25 25 23 21 18 18 16 13 8 14 14 9 3 6 6 22 30 35 35 31 25 25 30 35 39 39 45 47 39 39 36 39 36 37 37 36 33 33 29 25 26 26 32 38 38 38 39 50 55 69 69 74 57 38 38 23 15 9 9 6 6 6 7 10 11 11 12
nan 0 nan nan nan nan nan 1 3 3 12 9 24 24 38 35 35 35 29 28 28 31 31 31 31 32 27 14 11 11 8 6 4 4 3 5 6 6 3 2 2 6 13 20 20 25 29 25 25 22 24 23 28 28 28 25 25 23 19 20 20 26 31 30 30 31 36 45 56 56 65 52 38 38 23 15 10 10 6 5 5 6 8 11 11 12
0 0 nan nan nan nan nan nan 11 11 19 8 13 13 19 34 45 45 36 32 32 43 39 29 29 29 20 17 11 11 9 7 7 7 2 1 0 0 nan nan nan nan 1 2 2 5 16 17 17 14 15 15 21 21 22 22 22 18 14 17 17 20 25 25 25 24 26 35 46 46 55 49 36 36 24 16 10 10 7 5 5 6 7 10 10 12
0 nan nan nan nan nan 1 4 3 3 4 8 15 15 27 34 37 37 35 32 32 49 41 31 31 14 7 8 14 14 11 7 4 4 2 2 4 4 2 0 0 0 0 0 0 1 10 8 8 2 9 8 8 8 11 15 15 14 16 20 20 22 25 23 23 22 22 28 38 38 49 44 33 33 23 14 11 11 7 5 5 4 6 8 8 11
1 3 6 15 15 20 8 5 6 6 9 18 19 19 28 38 40 40 39 37 37 43 41 25 25 10 5 7 12 12 12 7 4 4 3 3 5 5 5 3 3 0 0 0 0 2 16 11 11 1 0 1 1 1 6 16 16 28 24 29 29 30 29 26 26 22 22 28 39 39 42 39 28 28 18 12 9 9 8 5 5 5 5 7 7 10
11 10 11 15 15 13 6 3 5 5 10 17 26 26 32 34 44 44 44 36 36 35 18 8 8 9 7 6 9 9 8 8 6 6 4 3 4 4 4 5 5 0 nan nan nan 3 15 9 9 2 0 2 7 7 11 19 19 34 34 37 37 35 34 29 29 27 25 31 40 40 40 34 22 22 14 10 8 8 7 5 5 4 4 5 5 8
9 6 7 13 13 13 10 4 2 2 11 15 24 24 22 30 38 38 38 37 37 29 9 11 11 8 6 6 11 11 14 9 8 8 6 4 0 0 17 9 9 2 0 0 0 1 4 4 4 3 0 5 9 9 14 24 24 36 40 39 39 38 36 31 31 30 31 37 42 42 36 27 18 18 11 8 8 8 6 5 5 4 3 4 4 7
10 8 4 7 7 10 5 0 3 3 16 15 22 22 26 33 39 39 40 25 25 15 12 10 10 7 5 7 5 5 13 14 11 11 8 5 5 5 22 13 13 3 2 2 2 1 3 9 9 15 5 13 14 14 17 24 24 33 41 39 39 37 37 37 37 34 35 36 36 36 32 21 13 13 8 7 6 6 5 4 4 4 3 4 4 6
13 4 0 0 0 0 1 0 3 3 9 14 20 20 29 34 33 33 32 24 24 14 15 10 10 10 10 9 11 11 18 18 16 16 13 10 7 7 11 8 8 6 3 3 3 2 4 20 20 26 17 15 14 14 16 20 20 26 33 36 36 34 36 37 37 37 35 32 31 31 24 17 11 11 7 6 6 6 4 4 4 3 3 3 3 5
13 2 0 nan nan nan 1 6 8 8 15 26 26 26 26 30 21 21 7 12 12 15 14 9 9 16 19 18 21 21 24 24 23 23 19 14 8 8 8 7 7 5 1 1 1 0 1 13 13 26 18 14 13 13 14 16 16 21 28 34 34 34 33 35 35 38 38 31 28 28 21 15 10 10 8 7 6 6 4 3 3 3 3 3 3 5
1 0 0 nan nan nan 0 6 17 17 34 46 29 29 29 27 15 15 7 7 7 12 21 21 21 31 22 23 22 22 35 29 23 23 18 10 4 4 4 7 7 3 2 0 0 0 1 10 10 16 15 14 13 13 13 14 14 18 24 30 30 32 31 31 31 35 36 35 30 30 22 16 12 12 10 9 7 7 4 2 2 2 2 3 3 5
0 nan 0 nan nan nan 1 14 36 36 47 46 23 23 21 20 12 12 5 4 4 6 16 25 25 37 30 28 31 31 43 41 22 22 10 6 3 3 3 6 6 4 2 0 0 0 5 9 9 7 11 16 14 14 13 13 13 15 20 25 25 29 29 31 31 32 34 34 33 33 28 19 16 16 13 10 8 8 4 2 2 2 2 3 3 4
nan nan nan nan nan nan 13 22 26 26 42 36 35 35 27 19 7 7 3 2 2 7 20 27 27 32 35 29 35 35 33 30 25 25 16 6 5 5 3 8 8 7 4 1 1 2 5 3 3 3 9 17 12 12 12 12 12 14 19 21 21 27 29 29 29 31 32 32 32 32 29 25 22 22 17 14 10 10 8 3 3 2 3 4 4 6
nan 0 4 10 10 15 18 15 16 16 35 55 55 55 51 37 21 21 3 15 15 23 32 33 33 33 32 27 25 25 30 36 24 24 19 14 12 12 9 11 11 10 8 4 4 5 8 2 2 0 2 9 10 10 10 11 11 15 18 21 21 25 27 30 30 30 31 30 30 30 28 28 28 28 25 19 16 16 14 8 8 4 3 5 5 7
5 13 16 14 14 31 17 10 33 33 38 42 49 49 71 66 65 65 62 52 52 40 36 27 27 23 30 38 24 24 27 31 25 25 20 22 16 16 12 12 12 14 13 8 8 7 5 1 1 0 0 1 6 6 8 11 11 16 20 24 24 25 29 30 30 31 33 31 31 31 31 31 32 32 29 25 23 23 19 15 15 8 5 6 6 7
30 24 22 29 29 72 84 96 112 112 97 52 43 43 42 48 40 40 29 29 29 29 28 23 23 14 14 14 14 14 15 30 30 30 24 19 15 15 15 15 15 19 13 10 10 7 3 1 1 nan nan nan 7 7 9 12 12 16 21 24 24 27 28 28 28 30 31 33 34 34 34 35 34 34 35 32 31 31 28 23 23 14 8 8 8 9
58 60 78 80 80 78 78 92 120 120 146 122 65 65 51 48 33 33 25 22 22 22 23 19 19 12 9 8 6 6 8 11 16 16 24 27 22 22 14 13 13 16 13 8 8 4 4 1 1 nan 0 0 6 6 10 11 11 13 17 20 20 23 24 25 25 24 28 30 31 31 33 35 37 37 37 38 36 36 35 33 33 22 14 11 11 13
38 39 37 38 38 42 54 79 96 96 110 122 132 132 86 38 29 29 24 21 21 21 21 20 20 13 12 12 8 8 13 14 14 14 18 21 15 15 9 9 9 12 8 4 4 4 10 6 6 5 5 2 2 2 6 8 8 11 15 19 19 20 25 27 27 28 30 31 33 33 33 35 37 37 38 39 41 41 42 39 39 30 21 16 16 15
21 16 17 19 19 28 46 64 79 79 87 99 116 116 86 31 24 24 23 18 18 13 12 14 14 12 9 9 7 7 10 14 13 13 10 11 8 8 6 5 5 6 4 4 4 4 6 7 7 6 4 2 0 0 1 4 4 8 16 21 21 26 30 35 35 38 36 38 35 35 36 36 34 34 35 39 41 41 43 42 42 34 26 19 19 17
3 4 6 8 8 15 25 20 50 50 82 94 103 103 82 35 23 23 15 13 13 9 9 9 9 9 7 7 6 6 7 7 7 7 6 5 6 6 2 3 3 4 6 7 7 8 6 5 5 4 2 2 0 0 0 8 8 14 17 19 19 21 24 24 24 28 30 34 36 36 39 37 35 35 34 38 40 40 43 41 41 34 27 21 21 19
nan nan nan nan nan 0 0 0 20 20 60 81 81 81 63 30 20 20 19 15 15 12 10 11 11 7 7 8 6 6 3 3 8 8 5 6 5 5 3 4 4 6 12 9 9 7 2 0 0 3 6 7 7 7 6 5 5 2 0 0 0 3 8 10 10 16 19 27 32 32 35 38 38 38 36 35 38 38 40 40 40 33 29 26 26 23
0 0 nan nan nan nan nan nan nan nan 2 7 14 14 33 32 25 25 20 19 19 17 16 17 17 18 13 13 7 7 3 1 5 5 7 7 8 8 11 12 12 11 11 19 19 11 5 3 3 0 0 1 0 0 nan 0 0 0 0 nan nan nan 0 2 2 8 15 21 23 23 28 32 36 36 38 40 40 40 40 37 37 31 30 28 28 20
2 1 0 nan nan nan nan nan nan nan 3 6 11 11 17 24 32 32 23 19 19 19 18 19 19 20 15 14 8 8 3 3 10 10 15 8 10 10 9 10 10 9 12 14 14 16 8 7 7 4 1 0 1 1 0 1 1 1 1 1 1 0 0 2 2 4 14 21 25 25 26 26 30 30 34 36 40 40 40 35 35 33 29 28 28 22
1 3 2 0 0 nan nan nan nan nan 1 6 13 13 18 17 22 22 24 19 19 19 17 18 18 18 17 11 8 8 4 5 17 17 16 8 10 10 10 10 10 9 12 12 12 13 10 9 9 5 2 1 1 1 1 0 0 1 3 2 2 0 1 2 2 4 12 19 24 24 23 22 25 25 28 32 33 33 35 33 33 33 30 30 30 23
2 3 1 0 0 0 0 0 0 0 0 2 6 6 13 15 16 16 18 15 15 14 13 15 15 18 16 12 9 9 5 4 15 15 18 10 11 11 10 11 11 9 9 12 12 12 11 10 10 9 6 2 0 0 0 2 2 2 3 3 3 2 2 5 5 7 7 11 16 16 19 25 25 25 23 24 25 25 28 28 28 27 30 29 29 24
2 3 2 0 0 0 0 0 0 0 nan nan 1 1 8 11 13 13 13 13 13 16 19 17 17 17 16 16 10 10 7 5 13 13 21 11 9 9 10 9 9 9 10 11 11 8 10 9 9 11 10 4 0 0 nan 2 2 4 3 3 3 3 3 4 4 6 5 5 6 6 10 23 29 29 29 25 20 20 21 22 22 25 28 30 30 25
5 3 1 0 0 0 1 nan nan nan nan nan nan nan 6 8 12 12 14 12 12 11 15 22 22 20 29 18 16 16 10 9 13 13 22 12 9 9 11 10 10 10 7 8 8 6 7 8 8 9 7 4 1 1 0 1 1 3 2 2 2 2 1 1 1 2 3 3 1 1 2 9 18 18 32 27 21 21 19 19 19 21 25 26 26 25
5 3 1 0 0 0 0 nan nan nan nan nan nan nan 3 8 13 13 13 14 14 13 12 10 10 12 26 40 25 25 17 16 21 21 20 10 7 7 9 10 10 9 7 7 7 7 5 7 7 6 4 1 2 2 3 2 2 2 1 2 2 1 0 0 0 1 1 3 3 3 1 2 9 9 19 32 38 38 31 17 17 18 27 27 27 23
4 2 1 1 1 0 0 nan nan nan nan nan nan nan 1 7 15 15 16 13 13 11 11 10 10 8 9 15 28 28 31 20 20 20 18 13 6 6 6 7 7 8 9 7 7 7 5 6 6 5 4 2 1 1 1 2 2 2 2 2 2 1 0 2 2 4 4 5 5 5 4 5 9 9 14 30 48 48 46 23 23 19 25 26 26 27
6 2 1 1 1 0 nan nan nan nan nan nan 1 1 1 4 7 7 11 9 9 10 9 9 9 7 10 17 20 20 26 20 25 25 16 12 10 10 5 4 4 8 7 8 8 7 6 6 6 7 6 3 3 3 2 2 2 3 5 2 2 1 1 3 3 6 6 5 6 6 6 10 16 16 20 25 47 47 53 38 38 27 28 27 27 24
6 1 0 0 0 0 0 nan nan nan nan nan nan nan nan 0 3 3 6 8 8 10 8 10 10 10 11 14 12 12 14 14 20 20 16 13 12 12 10 7 7 6 6 7 7 6 7 7 7 8 5 3 4 4 4 3 3 6 8 4 4 2 1 3 3 3 3 4 5 5 7 8 13 13 19 28 61 61 81 65 65 54 48 39 39 25
10 3 0 nan nan nan nan nan nan nan nan nan nan nan nan nan 2 2 4 7 7 7 7 8 8 10 9 11 10 10 10 12 16 16 16 13 12 12 13 10 10 7 5 5 5 8 12 12 12 9 6 4 4 4 3 3 3 6 8 4 4 3 3 2 2 3 4 5 6 6 7 8 9 9 11 18 68 68 108 102 102 72 58 54 54 35
3 0 nan nan nan nan nan nan nan nan nan nan nan nan nan nan 1 1 7 6 6 8 8 9 9 9 8 7 6 6 8 5 7 7 9 7 9 9 9 10 10 8 3 4 4 8 11 15 15 8 7 6 6 6 4 4 4 5 6 6 6 5 3 1 1 4 6 7 8 8 11 13 13 13 12 14 44 44 118 103 103 72 53 46 46 35
0 nan nan nan nan nan nan nan nan nan nan nan nan nan nan nan 1 1 5 5 5 6 5 4 4 6 7 6 6 6 5 7 5 5 6 9 4 4 5 6 6 8 4 5 5 8 10 11 11 8 7 7 7 7 4 4 4 4 4 7 7 5 3 1 1 3 5 5 7 7 12 17 21 21 19 22 36 36 114 111 111 91 68 51 51 31
nan nan nan nan nan nan nan nan nan nan nan nan nan nan nan nan 0 0 1 4 4 5 4 5 5 6 6 3 4 4 6 7 8 8 7 15 28 28 13 5 5 6 4 5 5 6 5 7 7 7 9 9 7 7 4 4 4 4 6 8 8 7 4 2 2 3 3 3 3 3 6 11 9 9 11 14 32 32 105 137 137 100 76 61 61 36
nan nan nan nan nan nan nan nan nan nan nan nan nan nan nan nan nan nan 0 2 2 4 4 6 6 5 4 3 3 3 4 5 6 6 6 7 13 13 16 16 16 9 2 3 3 3 3 6 6 7 9 9 9 9 7 5 5 5 4 8 8 7 6 4 4 4 4 4 4 4 4 5 4 4 6 9 16 16 67 143 143 105 76 54 54 38
1 nan nan nan nan nan nan nan nan nan nan nan nan nan nan nan nan nan nan 0 0 1 4 5 5 3 2 1 1 1 1 3 5 5 7 9 10 10 13 22 22 29 15 4 4 4 4 8 8 8 7 6 8 8 5 6 6 6 6 6 6 5 4 4 4 4 4 4 3 3 5 6 7 7 8 9 8 8 24 118 118 121 76 47 47 32
3 0 nan nan nan nan nan nan nan nan nan nan nan nan nan nan nan nan nan nan nan nan 3 2 2 2 1 0 1 1 1 3 2 2 5 7 12 12 15 15 15 22 36 34 34 30 21 17 17 13 10 8 6 6 4 5 5 7 6 6 6 7 5 5 5 4 4 4 7 7 7 6 8 8 9 11 13 13 17 79 79 159 78 44 44 28
0 nan nan nan nan nan nan nan nan nan nan nan nan nan nan nan nan nan nan nan nan nan nan 1 1 1 0 0 1 1 4 4 3 3 4 6 9 9 13 17 17 15 25 32 32 38 43 37 37 27 14 11 6 6 4 4 4 7 7 7 7 8 5 5 5 4 4 6 12 12 11 6 8 8 9 11 15 15 14 58 58 136 96 48 48 20
1 nan nan nan nan nan nan nan nan nan nan nan nan nan nan nan nan nan nan nan nan nan nan 0 0 1 0 0 0 0 1 1 2 2 3 4 8 8 12 16 16 15 17 17 17 20 25 32 32 39 40 23 8 8 5 4 4 6 7 7 7 7 6 4 4 4 5 6 11 11 13 8 10 10 12 9 10 10 13 31 31 115 103 62 62 24
3 nan nan nan nan nan nan nan nan nan nan nan nan nan nan nan nan nan nan nan nan nan nan nan nan 0 0 0 0 0 1 0 2 2 2 3 3 3 9 11 11 14 13 13 13 15 14 14 14 18 37 46 22 22 4 3 3 4 4 6 6 6 7 5 5 4 4 4 8 8 13 11 8 8 7 7 8 8 10 13 13 108 104 70 70 38
CIN
-0 nan nan nan nan nan nan nan nan nan nan nan nan nan nan nan nan nan -0 nan nan nan nan nan nan nan nan -0 -0 -0 -0 -0 -0 -0 -0 -0 -0 -0 -0 -0 -0 -0 -0 -0 -0 -0 -0 -0 -0 -0 -0 -0 -0 -0 -0 -0 -0 -0 -0 -0 -0 -0 -0 -0 -0 -0 -0 -0 -0 -0 -0 -0 -0 -0 -0 -0 -0 -0 -0 -0 -0 -0 -0 -0 -0 -0
-0 nan nan nan nan nan nan nan nan nan nan nan nan nan nan nan nan nan nan -0 -0 nan nan nan nan nan nan -0 -0 -0 -0 -0 -0 -0 -0 -0 -0 -0 -0 -0 -0 -0 -0 -0 -0 -0 -0 -0 -0 -0 -0 -0 -0 -0 -0 -0 -0 -0 -0 -0 -0 -0 -0 -0 -0 -0 -0 -0 -0 -0 -0 -0 -0 -0 -0 -0 -0 -0 -0 -0 -0 -0 -0 -0 -0 -0
nan nan nan nan nan nan nan nan nan nan nan nan nan nan nan nan nan nan nan -0 -0 -0 nan nan nan nan nan -0 -0 -0 -0 -0 -0 -0 -0 -0 -0 -0 -0 -0 -0 -0 -0 -0 -0 -0 -0 -0 -0 -0 -0 -0 -0 -0 -0 -0 -0 -0 -0 -0 -0 -0 -0 -0 -0 -0 -0 -0 -0 -0 -0 -0 -0 -0 -0 -0 -0 -0 -0 -0 -0 -0 -0 -0 -0 -0
nan nan nan nan nan nan nan nan nan nan nan -0 -0 -0 -0 -0 -0 -0 -0 -0 -0 -0 -0 -0 -0 nan -0 -0 -0 -0 -0 -0 -0 -0 -0 -0 -0 -0 -0 -0 -0 -0 -0 -0 -0 -0 -0 -0 -0 -0 -0 -0 -0 -0 -0 -0 -0 -0 -0 -0 -0 -0 -0 -0 -0 -0 -0 -0 -0 -0 -0 -0 -0 -0 -0 -0 -0 -0 -0 -0 -0 -0 -0 -0 -0 -0
nan nan nan nan nan nan -0 -0 -0 -0 -0 -0 -0 -0 -0 -0 -0 -0 -0 -0 -0 -0 -0 -0 -0 -0 -0 -0 -0 -0 -0 -0 -0 -0 -0 -0 -0 -0 -0 -0 -0 -0 -0 -0 -0 -0 -0 -0 -0 -0 -0 -0 -0 -0 -0 -0 -0 -0 -0 -0 -0 -0 -0 -0 -0 -0 -0 -0 -0 -0 -0 -0 -0 -0 -0 -0 -0 -0 -0 -0 -0 -0 -0 -0 -0 -0
nan nan -0 nan nan nan -0 -0 -0 -0 -0 -0 -0 -0 -0 -0 -0 -0 -0 -0 -0 -0 -0 -0 -0 -0 -0 -0 -0 -0 -0 -0 -0 -0 -0 -0 -0 -0 -0 -0 -0 -0 -0 -0 -0 -0 -0 -0 -0 -0 -0 -0 -0 -0 -0 -0 -0 -0 -0 -0 -0 -0 -0 -0 -0 -0 -0 -0 -0 -0 -0 -0 -0 -0 -0 -0 -0 -0 -0 -0 -0 -0 -0 -0 -0 -0
nan nan -0 nan nan nan -0 -0 -0 -0 -0 -0 -0 -0 -0 -0 -0 -0 -0 -0 -0 -0 -0 -0 -0 -0 -0 -0 -0 -0 -0 -0 -0 -0 -0 -0 -0 -0 -0 -0 -0 -0 -0 -0 -0 -0 -0 -0 -0 -0 -0 -0 -0 -0 -0 -0 -0 -0 -0 -0 -0 -0 -0 -0 -0 -0 -0 -0 -0 -0 -0 -0 -0 -0 -0 -0 -0 -0 -0 -0 -0 -0 -0 -0 -0 -0
nan nan nan nan nan nan nan -0 -0 -0 -0 -0 -0 -0 -0 -0 -0 -0 -0 -0 -0 -0 -0 -0 -0 -0 -0 -0 -0 -0 -0 -0 -0 -0 -0 -0 -0 -0 -0 -0 -0 -0 -0 -0 -0 -0 -0 -0 -0 -0 -0 -0 -0 -0 -0 -0 -0 -0 -0 -0 -0 -0 -0 -0 -0 -0 -0 -0 -0 -0 -0 -0 -0 -0 -0 -0 -0 -0 -0 -0 -0 -0 -0 -0 -0 -0
nan nan nan nan nan nan nan nan -0 -0 -0 -0 -0 -0 -0 -0 -0 -0 -0 -0 -0 -0 -0 -0 -0 -0 -0 -0 -0 -0 -0 -0 -0 -0 -0 -0 -0 -0 -0 -0 -0 -0 -0 -0 -0 -0 -0 -0 -0 -0 -0 -0 -0 -0 -0 -0 -0 -0 -0 -0 -0 -0 -0 -0 -0 -0 -0 -0 -0 -0 -0 -0 -0 -0 -0 -0 -0 -0 -0 -0 -0 -0 -0 -0 -0 -0
-0 -0 nan nan nan nan nan nan -0 -0 -0 -0 -0 -0 -0 -0 -0 -0 -0 -0 -0 -0 -0 -0 -0 -0 -0 -0 -0 -0 -0 -0 -0 -0 -0 -0 -0 -0 -0 -0 -0 -0 -0 -0 -0 -0 -0 -0 -0 -0 -0 -0 -0 -0 -0 -0 -0 -0 -0 -0 -0 -0 -0 -0 -0 -0 -0 -0 -0 -0 -0 -0 -0 -0 -0 -0 -0 -0 -0 -0 -0 -0 -0 -0 -0 -0
-0 -0 nan nan nan nan nan -1 -0 -0 -0 -0 -0 -0 -0 -0 -0 -0 -0 -0 -0 -0 -0 -0 -0 -0 -0 -0 -0 -0 -0 -0 -0 -0 -0 -0 -0 -0 -0 -0 -0 -0 -0 -0 -0 -0 -0 -0 -0 -0 -0 -0 -0 -0 -0 -0 -0 -0 -0 -0 -0 -0 -0 -0 -0 -0 -0 -0 -0 -0 -0 -0 -0 -0 -0 -0 -0 -0 -0 -0 -0 -0 -0 -0 -0 -0
nan -0 nan nan nan nan nan -0 -0 -0 -0 -0 -0 -0 -0 -0 -1 -1 -0 -0 -0 -0 -0 -0 -0 -0 -0 -0 -0 -0 -0 -0 -0 -0 -0 -0 -0 -0 -0 -0 -0 -0 -0 -0 -0 -0 -0 -0 -0 -0 -0 -0 -0 -0 -0 -0 -0 -0 -0 -0 -0 -0 -0 -0 -0 -0 -0 -0 -0 -0 -0 -0 -0 -0 -0 -0 -0 -0 -0 -0 -0 -0 -0 -0 -0 -0
-0 -0 nan nan nan nan nan nan -0 -0 -0 -0 -0 -0 -0 -0 -0 -0 -0 -0 -0 -0 -0 -0 -0 -0 -0 -0 -0 -0 -0 -0 -0 -0 -0 -0 -0 -0 nan nan nan nan -0 -0 -0 -0 -0 -0 -0 -0 -0 -0 -0 -0 -0 -0 -0 -0 -0 -0 -0 -0 -0 -0 -0 -0 -0 -0 -0 -0 -0 -0 -0 -0 -0 -0 -0 -0 -0 -0 -0 -0 -0 -0 -0 -0
-0 nan nan nan nan nan -7 -1 -0 -0 -1 -0 -0 -0 -0 -0 -0 -0 -0 -0 -0 -0 -0 -0 -0 -0 -0 -0 -0 -0 -0 -0 -0 -0 -0 -0 -0 -0 -0 -0 -0 -0 -0 -0 -0 -0 -0 -0 -0 -0 -0 -0 -0 -0 -0 -0 -0 -0 -0 -0 -0 -0 -0 -0 -0 -0 -0 -0 -0 -0 -0 -0 -0 -0 -0 -0 -0 -0 -0 -0 -0 -0 -0 -0 -0 -0
-14 -10 -6 -3 -3 -1 -5 -6 -3 -3 -1 -0 -0 -0 -0 -0 -0 -0 -0 -0 -0 -0 -0 -0 -0 -0 -0 -0 -0 -0 -0 -0 -0 -0 -0 -0 -0 -0 -0 -0 -0 -0 -0 -0 -0 -0 -0 -0 -0 -0 -0 -0 -0 -0 -0 -0 -0 -0 -0 -0 -0 -0 -0 -0 -0 -0 -0 -0 -0 -0 -0 -0 -0 -0 -0 -0 -0 -0 -0 -0 -0 -0 -0 -0 -0 -0
-3 -4 -2 -0 -0 -0 -4 -7 -3 -3 -1 -0 -0 -0 -0 -0 -0 -0 -0 -0 -0 -0 -0 -0 -0 -0 -0 -0 -0 -0 -0 -0 -0 -0 -0 -0 -0 -0 -0 -0 -0 -0 nan nan nan -0 -0 -0 -0 -0 -0 -0 -0 -0 -0 -0 -0 -0 -0 -0 -0 -0 -0 -0 -0 -0 -0 -0 -0 -0 -0 -0 -0 -0 -0 -0 -0 -0 -0 -0 -0 -0 -0 -0 -0 -0
-1 -3 -3 -0 -0 -0 -1 -5 -3 -3 -1 -0 -0 -0 -0 -0 -0 -0 -0 -0 -0 -0 -0 -0 -0 -0 -0 -0 -0 -0 -0 -0 -0 -0 -0 -0 -0 -0 -0 -0 -0 -0 -0 -0 -0 -0 -0 -0 -0 -0 -0 -0 -0 -0 -0 -0 -0 -0 -0 -0 -0 -0 -0 -0 -0 -0 -0 -0 -0 -0 -0 -0 -0 -0 -0 -0 -0 -0 -0 -0 -0 -0 -0 -0 -0 -0
-1 -2 -5 -2 -2 -1 -1 -3 -4 -4 -1 -0 -0 -0 -0 -0 -0 -0 -0 -0 -0 -0 -0 -0 -0 -0 -0 -0 -0 -0 -0 -0 -0 -0 -0 -0 -0 -0 -0 -0 -0 -0 -0 -0 -0 -0 -0 -0 -0 -0 -0 -0 -0 -0 -0 -0 -0 -0 -0 -0 -0 -0 -0 -0 -0 -0 -0 -0 -0 -0 -0 -0 -0 -0 -0 -0 -0 -0 -0 -0 -0 -0 -0 -0 -0 -0
-1 -4 -9 -4 -4 -1 -0 -1 -1 -1 -0 -0 -0 -0 -0 -0 -0 -0 -0 -0 -0 -0 -0 -0 -0 -0 -0 -0 -0 -0 -0 -0 -0 -0 -0 -0 -0 -0 -0 -0 -0 -0 -0 -0 -0 -0 -0 -0 -0 -0 -0 -0 -0 -0 -0 -0 -0 -0 -0 -0 -0 -0 -0 -0 -0 -0 -0 -0 -0 -0 -0 -0 -0 -0 -0 -0 -0 -0 -0 -0 -0 -0 -0 -0 -0 -0
-0 -2 -1 nan nan nan -0 -0 -1 -1 -0 -0 -0 -0 -0 -0 -0 -0 -0 -0 -0 -0 -0 -0 -0 -0 -0 -0 -0 -0 -0 -0 -0 -0 -0 -0 -0 -0 -0 -0 -0 -0 -0 -0 -0 -0 -0 -0 -0 -0 -0 -0 -0 -0 -0 -0 -0 -0 -0 -0 -0 -0 -0 -0 -0 -0 -0 -0 -0 -0 -0 -0 -0 -0 -0 -0 -0 -0 -0 -0 -0 -0 -0 -0 -0 -0
-0 -0 -0 nan nan nan -1 -0 -0 -0 -0 -0 -0 -0 -0 -0 -0 -0 -0 -0 -0 -0 -0 -0 -0 -0 -0 -0 -0 -0 -0 -0 -0 -0 -0 -0 -0 -0 -0 -0 -0 -0 -0 -0 -0 -0 -0 -0 -0 -0 -0 -0 -0 -0 -0 -0 -0 -0 -0 -0 -0 -0 -0 -0 -0 -0 -0 -0 -0 -0 -0 -0 -0 -0 -0 -0 -0 -0 -0 -0 -0 -0 -0 -0 -0 -0
-0 nan -0 nan nan nan -0 -0 -0 -0 -0 -0 -0 -0 -0 -0 -0 -0 -0 -0 -0 -0 -0 -0 -0 -0 -0 -0 -0 -0 -0 -0 -0 -0 -0 -0 -0 -0 -0 -0 -0 -0 -0 -0 -0 -0 -0 -0 -0 -0 -0 -0 -0 -0 -0 -0 -0 -0 -0 -0 -0 -0 -0 -0 -0 -0 -0 -0 -0 -0 -0 -0 -0 -0 -0 -0 -0 -0 -0 -0 -0 -0 -0 -0 -0 -0
nan nan nan nan nan nan -1 -0 -0 -0 -0 -0 -0 -0 -0 -0 -0 -0 -0 -0 -0 -0 -0 -0 -0 -0 -0 -0 -0 -0 -0 -0 -0 -0 -0 -0 -0 -0 -0 -0 -0 -0 -0 -0 -0 -0 -0 -0 -0 -0 -0 -0 -0 -0 -0 -0 -0 -0 -0 -0 -0 -0 -0 -0 -0 -0 -0 -0 -0 -0 -0 -0 -0 -0 -0 -0 -0 -0 -0 -0 -0 -0 -0 -0 -0 -0
nan -0 -0 -0 -0 -4 -3 -1 -1 -1 -0 -0 -0 -0 -0 -0 -0 -0 -0 -0 -0 -0 -0 -0 -0 -0 -0 -0 -0 -0 -0 -0 -0 -0 -0 -0 -0 -0 -0 -0 -0 -0 -0 -0 -0 -0 -0 -0 -0 -0 -0 -0 -0 -0 -0 -0 -0 -0 -0 -0 -0 -0 -0 -0 -0 -0 -0 -0 -0 -0 -0 -0 -0 -0 -0 -0 -0 -0 -0 -0 -0 -0 -0 -0 -0 -0
-3 -1 -0 -1 -1 -7 -5 -4 -0 -0 -0 -0 -0 -0 -0 -0 -0 -0 -0 -0 -0 -0 -0 -0 -0 -0 -0 -0 -0 -0 -0 -0 -0 -0 -0 -0 -0 -0 -0 -0 -0 -0 -0 -0 -0 -0 -0 -0 -0 -0 -0 -0 -0 -0 -0 -0 -0 -0 -0 -0 -0 -0 -0 -0 -0 -0 -0 -0 -0 -0 -0 -0 -0 -0 -0 -0 -0 -0 -0 -0 -0 -0 -0 -0 -0 -0
-0 -0 -0 -0 -0 -0 -0 -0 -0 -0 -0 -0 -0 -0 -0 -0 -0 -0 -0 -0 -0 -0 -0 -0 -0 -0 -0 -0 -0 -0 -0 -0 -0 -0 -0 -0 -0 -0 -0 -0 -0 -0 -0 -0 -0 -0 -0 -0 -0 nan nan nan -0 -0 -0 -0 -0 -0 -0 -0 -0 -0 -0 -0 -0 -0 -0 -0 -0 -0 -0 -0 -0 -0 -0 -0 -0 -0 -0 -0 -0 -0 -0 -0 -0 -0
-0 -0 -0 -0 -0 -0 -0 -0 -0 -0 -0 -0 -0 -0 -0 -0 -0 -0 -0 -0 -0 -0 -0 -0 -0 -0 -0 -0 -0 -0 -0 -0 -0 -0 -0 -0 -0 -0 -0 -0 -0 -0 -0 -0 -0 -0 -0 -0 -0 nan -0 -0 -0 -0 -0 -0 -0 -0 -0 -0 -0 -0 -0 -0 -0 -0 -0 -0 -0 -0 -0 -0 -0 -0 -0 -0 -0 -0 -0 -0 -0 -0 -0 -0 -0 -0
-0 -0 -0 -0 -0 -0 -0 -0 -0 -0 -0 -0 -0 -0 -0 -0 -0 -0 -0 -0 -0 -0 -0 -0 -0 -0 -0 -0 -0 -0 -0 -0 -0 -0 -0 -0 -0 -0 -0 -0 -0 -0 -0 -0 -0 -0 -0 -0 -0 -0 -0 -0 -0 -0 -0 -0 -0 -0 -0 -0 -0 -0 -0 -0 -0 -0 -0 -0 -0 -0 -0 -0 -0 -0 -0 -0 -0 -0 -0 -0 -0 -0 -0 -0 -0 -0
-0 -0 -0 -0 -0 -0 -0 -0 -0 -0 -0 -0 -0 -0 -0 -0 -0 -0 -0 -0 -0 -0 -0 -0 -0 -0 -0 -0 -0 -0 -0 -0 -0 -0 -0 -0 -0 -0 -0 -0 -0 -0 -0 -0 -0 -0 -0 -0 -0 -0 -0 -0 -0 -0 -0 -0 -0 -0 -0 -0 -0 -0 -0 -0 -0 -0 -0 -0 -0 -0 -0 -0 -0 -0 -0 -0 -0 -0 -0 -0 -0 -0 -0 -0 -0 -0
-0 -0 -0 -0 -0 -0 -0 -0 -0 -0 -0 -0 -0 -0 -0 -0 -0 -0 -0 -0 -0 -0 -0 -0 -0 -0 -0 -0 -0 -0 -0 -0 -0 -0 -0 -0 -0 -0 -0 -0 -0 -0 -0 -0 -0 -0 -0 -0 -0 -0 -0 -0 -0 -0 -0 -0 -0 -0 -0 -0 -0 -0 -0 -0 -0 -0 -0 -0 -0 -0 -0 -0 -0 -0 -0 -0 -0 -0 -0 -0 -0 -0 -0 -0 -0 -0
nan nan nan nan nan -0 -0 -0 -0 -0 -0 -0 -0 -0 -0 -0 -0 -0 -0 -0 -0 -0 -0 -0 -0 -0 -0 -0 -0 -0 -0 -0 -0 -0 -0 -0 -0 -0 -0 -0 -0 -0 -0 -0 -0 -0 -0 -0 -0 -0 -0 -0 -0 -0 -0 -0 -0 -0 -0 -0 -0 -0 -0 -0 -0 -0 -0 -0 -0 -0 -0 -0 -0 -0 -0 -0 -0 -0 -0 -0 -0 -0 -0 -0 -0 -0
-0 -0 nan nan nan nan nan nan nan nan -0 -0 -0 -0 -0 -0 -0 -0 -0 -0 -0 -0 -0 -0 -0 -0 -0 -0 -0 -0 -0 -0 -0 -0 -0 -0 -0 -0 -0 -0 -0 -0 -0 -0 -0 -0 -0 -0 -0 -0 -0 -0 -0 -0 nan -0 -0 -0 -0 nan nan nan -0 -0 -0 -0 -0 -0 -0 -0 -0 -0 -0 -0 -0 -0 -0 -0 -0 -0 -0 -0 -0 -0 -0 -0
-0 -0 -0 nan nan nan nan nan nan nan -0 -0 -0 -0 -0 -0 -0 -0 -0 -0 -0 -0 -0 -0 -0 -0 -0 -0 -0 -0 -0 -0 -0 -0 -0 -0 -0 -0 -0 -0 -0 -0 -0 -0 -0 -0 -0 -0 -0 -0 -0 -0 -0 -0 -0 -0 -0 -0 -0 -0 -0 -0 -0 -0 -0 -0 -0 -0 -0 -0 -0 -0 -0 -0 -0 -0 -0 -0 -0 -0 -0 -0 -0 -0 -0 -0
-0 -0 -0 -0 -0 nan nan nan nan nan -0 -0 -0 -0 -0 -0 -0 -0 -0 -0 -0 -0 -0 -0 -0 -0 -0 -0 -0 -0 -0 -0 -0 -0 -0 -0 -0 -0 -0 -0 -0 -0 -0 -0 -0 -0 -0 -0 -0 -0 -0 -0 -0 -0 -0 -0 -0 -0 -0 -0 -0 -0 -0 -0 -0 -0 -0 -0 -0 -0 -0 -0 -0 -0 -0 -0 -0 -0 -0 -0 -0 -0 -0 -0 -0 -0
-0 -0 -0 -0 -0 -0 -0 -0 -0 -0 -0 -0 -0 -0 -0 -0 -0 -0 -0 -0 -0 -0 -0 -0 -0 -0 -0 -0 -0 -0 -0 -0 -0 -0 -0 -0 -0 -0 -0 -0 -0 -0 -0 -0 -0 -0 -0 -0 -0 -0 -0 -0 -0 -0 -0 -0 -0 -0 -0 -0 -0 -0 -0 -0 -0 -0 -0 -0 -0 -0 -0 -0 -0 -0 -0 -0 -0 -0 -0 -0 -0 -0 -0 -0 -0 -0
-0 -0 -0 -0 -0 -0 -0 -0 -0 -0 nan nan -0 -0 -0 -0 -0 -0 -0 -0 -0 -0 -0 -0 -0 -0 -0 -0 -0 -0 -0 -0 -0 -0 -0 -0 -0 -0 -0 -0 -0 -0 -0 -0 -0 -0 -0 -0 -0 -0 -0 -0 -0 -0 nan -0 -0 -0 -0 -0 -0 -0 -0 -0 -0 -0 -0 -0 -0 -0 -0 -0 -0 -0 -0 -0 -0 -0 -0 -0 -0 -0 -0 -0 -0 -0
-0 -0 -0 -0 -0 -0 -0 nan nan nan nan nan nan nan -0 -0 -0 -0 -0 -0 -0 -0 -0 -0 -0 -0 -0 -0 -0 -0 -0 -0 -0 -0 -0 -0 -0 -0 -0 -0 -0 -0 -0 -0 -0 -0 -0 -0 -0 -0 -0 -0 -0 -0 -0 -0 -0 -0 -0 -0 -0 -0 -0 -0 -0 -0 -0 -0 -0 -0 -0 -0 -0 -0 -0 -0 -0 -0 -0 -0 -0 -0 -0 -0 -0 -0
-0 -0 -0 -0 -0 -0 -0 nan nan nan nan nan nan nan -0 -0 -0 -0 -0 -0 -0 -0 -0 -0 -0 -0 -0 -0 -0 -0 -0 -0 -0 -0 -0 -0 -0 -0 -0 -0 -0 -0 -0 -0 -0 -0 -0 -0 -0 -0 -0 -0 -0 -0 -0 -0 -0 -0 -0 -0 -0 -0 -0 -0 -0 -0 -0 -0 -0 -0 -0 -0 -0 -0 -0 -0 -0 -0 -0 -0 -0 -0 -0 -0 -0 -0
-0 -0 -0 -0 -0 -0 -0 nan nan nan nan nan nan nan -0 -0 -0 -0 -0 -0 -0 -0 -0 -0 -0 -0 -0 -0 -0 -0 -0 -0 -0 -0 -0 -0 -0 -0 -0 -0 -0 -0 -0 -0 -0 -0 -0 -0 -0 -0 -0 -0 -0 -0 -0 -0 -0 -0 -0 -0 -0 -0 -0 -0 -0 -0 -0 -0 -0 -0 -0 -0 -0 -0 -0 -0 -0 -0 -0 -0 -0 -0 -0 -0 -0 -0
-0 -0 -0 -0 -0 -0 nan nan nan nan nan nan -0 -0 -0 -0 -0 -0 -0 -0 -0 -0 -0 -0 -0 -0 -0 -0 -0 -0 -0 -0 -0 -0 -0 -0 -0 -0 -0 -0 -0 -0 -0 -0 -0 -0 -0 -0 -0 -0 -0 -0 -0 -0 -0 -0 -0 -0 -0 -0 -0 -0 -0 -0 -0 -0 -0 -0 -0 -0 -0 -0 -0 -0 -0 -0 -0 -0 -0 -0 -0 -0 -0 -0 -0 -0
-0 -0 -0 -0 -0 -0 -0 nan nan nan nan nan nan nan nan -0 -0 -0 -0 -0 -0 -0 -0 -0 -0 -0 -0 -0 -0 -0 -0 -0 -0 -0 -0 -1 -0 -0 -0 -0 -0 -0 -0 -0 -0 -0 -0 -0 -0 -0 -0 -0 -0 -0 -0 -0 -0 -0 -0 -0 -0 -0 -0 -0 -0 -0 -0 -0 -0 -0 -0 -0 -0 -0 -0 -0 -0 -0 -0 -0 -0 -0 -0 -0 -0 -0
-0 -0 -0 nan nan nan nan nan nan nan nan nan nan nan nan nan -0 -0 -0 -0 -0 -0 -0 -0 -0 -0 -0 -0 -0 -0 -0 -0 -0 -0 -0 -0 -0 -0 -0 -0 -0 -0 -0 -0 -0 -0 -0 -0 -0 -0 -0 -0 -0 -0 -0 -0 -0 -0 -0 -0 -0 -0 -0 -0 -0 -0 -0 -0 -0 -0 -0 -0 -0 -0 -0 -0 -1 -1 -0 -0 -0 -0 -0 -0 -0 -0
-0 -0 nan nan nan nan nan nan nan nan nan nan nan nan nan nan -0 -0 -0 -0 -0 -0 -0 -0 -0 -0 -0 -0 -0 -0 -0 -2 -0 -0 -0 -1 -0 -0 -0 -0 -0 -0 -0 -0 -0 -0 -0 -0 -0 -0 -0 -0 -0 -0 -0 -0 -0 -0 -0 -0 -0 -0 -0 -0 -0 -0 -0 -0 -0 -0 -0 -0 -0 -0 -0 -0 -0 -0 -0 -0 -0 -0 -0 -0 -0 -0
-0 nan nan nan nan nan nan nan nan nan nan nan nan nan nan nan -0 -0 -0 -0 -0 -0 -0 -0 -0 -0 -0 -0 -0 -0 -0 -0 -0 -0 -0 -0 -1 -1 -0 -0 -0 -0 -0 -0 -0 -0 -0 -0 -0 -0 -0 -0 -0 -0 -0 -0 -0 -0 -0 -0 -0 -0 -0 -0 -0 -0 -0 -0 -0 -0 -0 -0 -0 -0 -0 -0 -0 -0 -0 -0 -0 -0 -0 -0 -0 -0
nan nan nan nan nan nan nan nan nan nan nan nan nan nan nan nan -0 -0 -0 -0 -0 -0 -0 -0 -0 -0 -0 -0 -0 -0 -0 -0 -0 -0 -0 -0 -0 -0 -0 -0 -0 -0 -0 -0 -0 -0 -0 -0 -0 -0 -0 -0 -0 -0 -0 -0 -0 -0 -0 -0 -0 -0 -0 -0 -0 -0 -0 -0 -0 -0 -0 -0 -0 -0 -0 -0 -0 -0 -0 -0 -0 -0 -0 -0 -0 -0
nan nan nan nan nan nan nan nan nan nan nan nan nan nan nan nan nan nan -0 -0 -0 -0 -0 -0 -0 -0 -0 -0 -0 -0 -0 -0 -0 -0 -0 -0 -0 -0 -0 -0 -0 -0 -0 -0 -0 -0 -0 -0 -0 -0 -0 -0 -0 -0 -0 -0 -0 -0 -0 -0 -0 -0 -0 -0 -0 -0 -0 -0 -0 -0 -0 -0 -0 -0 -0 -0 -0 -0 -0 -0 -0 -0 -0 -0 -0 -0
-0 nan nan nan nan nan nan nan nan nan nan nan nan nan nan nan nan nan nan -0 -0 -0 -0 -0 -0 -0 -0 -0 -0 -0 -0 -0 -0 -0 -0 -0 -0 -0 -0 -0 -0 -0 -0 -0 -0 -0 -0 -0 -0 -0 -0 -0 -0 -0 -0 -0 -0 -0 -0 -0 -0 -0 -0 -0 -0 -0 -0 -0 -0 -0 -0 -0 -0 -0 -0 -0 -0 -0 -1 -0 -0 -0 -0 -0 -0 -0
-0 -0 nan nan nan nan nan nan nan nan nan nan nan nan nan nan nan nan nan nan nan nan -0 -0 -0 -0 -0 -0 -0 -0 -0 -0 -0 -0 -0 -0 -0 -0 -0 -0 -0 -0 -0 -0 -0 -0 -0 -0 -0 -0 -0 -0 -0 -0 -0 -0 -0 -0 -0 -0 -0 -0 -0 -0 -0 -0 -0 -0 -0 -0 -0 -0 -0 -0 -0 -0 -0 -0 -0 -0 -0 -0 -2 -0 -0 -0
-0 nan nan nan nan nan nan nan nan nan nan nan nan nan nan nan nan nan nan nan nan nan nan -0 -0 -0 -0 -0 -0 -0 -0 -0 -0 -0 -0 -0 -0 -0 -0 -0 -0 -0 -0 -0 -0 -0 -0 -0 -0 -0 -0 -0 -0 -0 -0 -0 -0 -0 -0 -0 -0 -0 -0 -0 -0 -0 -0 -0 -0 -0 -0 -0 -0 -0 -0 -0 -0 -0 -0 -0 -0 -0 -0 -2 -2 -0
-0 nan nan nan nan nan nan nan nan nan nan nan nan nan nan nan nan nan nan nan nan nan nan -0 -0 -0 -0 -0 -0 -0 -0 -0 -0 -0 -0 -0 -0 -0 -0 -0 -0 -0 -0 -0 -0 -0 -0 -0 -0 -0 -0 -0 -0 -0 -0 -0 -0 -0 -0 -0 -0 -0 -0 -0 -0 -0 -0 -0 -0 -0 -0 -0 -0 -0 -0 -0 -0 -0 -0 -0 -0 -0 -2 -1 -1 -2
-0 nan nan nan nan nan nan nan nan nan nan nan nan nan nan nan nan nan nan nan nan nan nan nan nan -0 -0 -0 -0 -0 -0 -0 -0 -0 -0 -0 -0 -0 -0 -0 -0 -0 -0 -0 -0 -0 -0 -0 -0 -0 -0 -0 -0 -0 -0 -0 -0 -0 -0 -0 -0 -0 -0 -0 -0 -0 -0 -0 -0 -0 -0 -0 -0 -0 -0 -0 -0 -0 -0 -0 -0 -0 -0 -2 -2 -0
Wind_Speed
10 11 11 14 14 14 13 16 16 16 14 13 13 13 13 13 14 15 17 17 17 16 16 16 17 18 20 24 27 29 30 30 29 29 28 28 27 27 26 26 26 26 26 26 26 26 26 27 27 28 29 29 29 28 28 26 25 24 23 24 24 24 24 24 25 25 26 27 28 28 26 21 16 11 7 6 5 3 2 2 4 5 6 6 7 8
11 11 11 14 15 15 13 15 16 16 15 15 14 13 13 14 14 13 13 15 16 16 15 15 16 18 20 22 25 28 29 30 30 29 28 28 27 27 26 26 26 25 25 25 25 25 26 26 27 27 28 28 28 28 27 26 25 24 23 23 23 23 23 23 23 23 24 26 28 28 27 23 19 14 10 7 5 4 4 4 4 5 5 6 7 8
11 11 11 13 14 14 13 14 15 15 16 15 15 15 16 17 15 13 12 13 13 14 14 14 15 16 18 19 22 26 28 29 30 29 29 28 27 27 26 25 25 25 24 24 24 24 25 25 26 26 27 27 27 27 27 26 25 24 23 22 22 22 21 21 21 21 22 24 26 27 27 23 20 16 12 10 8 7 6 5 5 5 5 6 7 8
11 11 11 11 11 13 13 13 13 13 13 14 16 17 18 16 14 13 12 12 12 13 13 14 15 15 15 16 19 22 26 28 29 30 29 28 27 27 26 25 25 24 24 24 24 24 24 24 25 25 26 26 26 26 26 26 25 24 23 22 22 21 20 19 19 19 20 23 25 26 26 23 20 16 13 11 9 8 7 6 6 6 6 6 7 8
11 11 11 10 10 11 12 12 12 12 12 13 14 15 16 14 12 12 12 13 13 13 13 13 14 14 13 13 16 20 25 28 29 30 30 29 28 26 25 25 24 24 23 23 23 23 23 24 24 25 25 25 25 25 26 25 25 24 23 22 21 20 19 18 18 19 20 22 25 26 25 22 19 16 13 11 10 9 8 7 7 7 6 7 7 8
12 11 11 10 10 10 10 10 10 11 11 12 12 13 13 12 11 11 11 12 12 12 11 11 12 13 13 13 16 20 24 27 28 29 29 28 27 26 24 24 23 23 22 22 22 22 22 23 23 24 24 24 24 25 25 25 24 23 22 21 21 20 20 19 18 19 20 23 25 26 25 21 18 15 13 11 10 9 9 8 8 8 7 7 8 8
11 10 10 10 10 9 9 9 10 10 10 10 10 10 11 11 11 11 11 11 11 10 10 10 11 12 13 14 17 19 21 24 25 26 27 26 25 24 23 22 22 22 22 22 22 22 22 23 23 23 23 23 23 23 23 24 23 23 22 21 21 21 21 20 19 19 20 23 25 26 24 21 18 15 13 12 11 10 9 9 9 8 8 8 8 9
12 11 10 10 10 9 9 9 9 9 10 9 10 10 10 10 10 10 12 12 11 10 9 10 10 11 11 13 14 15 16 17 18 19 20 21 21 21 20 21 21 21 21 21 21 21 21 22 22 22 22 22 22 22 22 22 23 23 22 22 21 21 21 20 20 20 20 23 25 26 25 21 18 16 13 12 11 10 10 10 9 9 9 8 8 9
13 12 12 11 11 10 10 9 9 9 10 10 10 10 10 10 10 10 10 10 10 9 9 9 10 10 10 11 11 12 13 13 13 14 15 15 15 16 18 19 20 21 21 21 21 21 21 21 21 21 21 21 21 21 21 22 22 23 23 22 21 21 21 21 20 20 20 22 24 25 25 22 19 16 14 13 12 11 11 10 10 10 9 9 9 9
13 13 12 11 10 10 9 9 9 10 10 10 10 10 10 10 10 10 10 9 9 8 8 9 10 10 10 10 10 11 12 13 15 16 17 17 18 19 19 19 18 18 20 20 20 20 20 20 20 20 20 20 20 20 20 21 22 22 22 22 22 21 21 21 21 20 20 22 24 25 25 23 20 18 15 14 13 12 12 11 11 10 10 10 9 9
12 12 11 10 9 8 8 8 8 9 9 9 9 9 9 9 9 9 10 10 9 8 8 8 9 9 9 9 9 9 10 11 12 14 16 18 20 21 20 19 18 17 18 18 18 18 18 19 19 19 19 19 19 19 19 19 20 21 22 22 21 21 21 21 21 20 20 21 23 24 25 23 21 19 16 15 14 13 13 12 12 11 11 10 9 9
10 9 8 8 8 8 8 8 8 7 8 8 8 8 9 8 8 9 10 10 10 9 8 8 8 8 8 9 9 9 9 9 10 10 11 12 14 14 14 14 14 14 14 14 15 15 16 17 18 18 18 18 18 17 17 17 18 19 21 21 21 21 21 21 20 20 20 21 23 24 25 24 22 20 17 16 15 14 14 13 13 12 12 11 10 10
9 8 7 8 8 7 7 7 6 6 6 7 8 9 9 9 8 9 9 10 10 9 9 8 8 8 8 8 8 8 8 9 9 9 9 9 9 9 9 9 9 9 9 9 9 10 13 15 16 16 17 16 16 16 16 16 17 18 19 20 21 21 21 20 20 20 20 21 22 24 25 24 22 20 18 17 16 15 15 14 14 14 13 12 12 11
8 7 7 7 8 7 7 7 7 7 8 8 8 9 9 9 9 9 9 10 10 9 9 9 9 8 7 8 8 8 8 8 8 9 9 9 8 8 8 8 8 7 7 7 7 8 10 11 11 12 14 15 15 15 14 14 15 17 18 19 20 20 20 20 20 19 20 21 22 24 25 24 22 20 18 17 17 16 16 15 15 15 14 14 13 12
7 7 8 9 9 8 7 8 8 9 9 8 8 9 9 10 10 10 10 10 10 9 9 9 10 9 7 7 7 7 8 8 8 8 9 8 8 8 8 8 8 8 7 7 7 8 9 9 9 9 10 12 13 13 14 14 15 16 17 18 18 19 19 19 19 19 20 21 22 24 24 23 22 20 19 18 17 17 17 16 16 16 15 15 14 13
8 8 9 10 10 9 8 8 8 8 9 9 9 9 10 10 10 10 10 10 9 8 8 9 9 8 7 6 6 6 7 7 7 8 9 8 8 7 8 8 9 8 8 8 7 7 7 7 8 9 9 12 14 16 17 15 15 16 16 17 17 17 18 18 18 19 20 21 22 23 23 22 21 20 19 18 18 18 17 17 17 17 16 15 15 14
8 8 9 10 10 10 9 8 8 8 8 8 9 9 9 10 9 9 9 9 8 7 7 7 7 7 5 5 5 5 6 6 6 7 8 9 8 8 7 8 9 9 9 8 8 7 7 7 7 8 9 12 15 17 18 17 17 17 16 16 16 17 17 17 18 19 20 21 22 22 22 21 20 19 18 18 18 18 18 18 18 17 17 16 16 15
9 9 9 9 10 10 9 8 8 8 8 8 8 8 9 8 8 8 9 8 8 7 7 7 7 6 5 5 4 4 5 6 6 7 8 9 8 8 7 8 9 9 10 9 8 8 7 7 7 8 9 14 17 18 19 19 19 18 17 17 16 16 17 17 18 19 19 20 20 20 20 19 19 18 18 18 19 19 19 19 18 18 17 17 16 16
9 9 9 9 9 9 9 9 8 8 8 7 8 8 9 9 9 9 10 9 9 9 9 8 8 7 6 6 5 5 5 6 7 8 8 9 8 8 7 8 9 10 10 10 9 8 7 7 8 10 13 16 18 19 20 20 20 19 18 17 17 17 17 18 18 19 19 19 19 19 19 18 18 18 18 18 19 19 19 19 19 19 18 17 17 16
10 9 9 8 9 9 10 9 9 8 8 8 9 9 10 10 10 10 10 10 9 9 8 8 8 7 6 7 6 6 5 6 6 7 8 9 9 8 8 8 9 10 10 9 9 8 8 7 8 10 13 15 17 18 19 20 20 20 19 18 18 18 18 18 18 19 19 19 19 18 18 17 17 18 18 19 19 19 20 20 19 19 19 18 17 17
10 10 9 8 8 9 9 9 9 9 10 11 11 11 11 10 11 11 10 10 9 9 8 8 8 7 6 6 6 6 5 6 6 6 6 7 8 8 7 7 8 9 10 10 9 9 8 8 7 8 9 13 16 18 19 20 21 21 20 20 19 18 18 18 18 18 19 19 18 18 18 17 17 18 18 18 19 19 20 20 20 19 19 19 18 18
9 10 10 10 10 9 9 10 11 12 13 13 12 11 10 10 10 10 9 8 8 8 8 8 8 8 7 8 7 7 6 7 7 7 6 7 8 8 7 7 8 9 10 9 9 9 8 8 8 8 10 13 16 18 20 20 21 21 21 20 20 19 19 18 18 18 18 18 18 18 18 18 18 18 18 19 19 19 19 20 20 20 19 19 19 18
9 10 10 10 10 9 10 11 11 12 13 12 12 11 9 9 9 9 8 7 7 8 8 8 8 8 8 8 8 7 7 7 7 7 6 8 8 8 6 6 7 8 9 9 8 8 9 8 8 9 11 15 17 18 20 20 21 21 21 20 20 19 19 18 18 18 17 18 18 18 18 18 18 18 18 19 19 19 19 20 20 20 20 20 19 19
9 9 9 9 9 9 10 10 11 10 10 9 9 9 8 8 7 7 6 7 7 7 7 7 8 8 8 8 8 7 7 7 7 6 6 7 7 7 6 6 7 8 9 8 8 8 9 9 9 9 10 14 16 18 19 19 20 20 20 19 19 19 18 18 18 17 17 17 18 18 18 18 19 19 19 19 19 19 19 19 20 20 20 20 20 19
9 10 10 10 11 12 13 13 13 13 12 11 10 9 9 9 9 9 8 7 7 7 7 8 8 8 7 7 7 6 6 6 6 6 5 5 6 7 6 6 7 8 8 7 7 8 8 9 9 9 9 12 15 17 18 18 18 19 19 19 19 18 18 18 18 17 17 17 18 18 18 19 19 19 19 19 19 19 19 19 20 20 20 20 20 20
13 13 14 16 18 20 22 22 22 21 20 16 13 10 9 9 9 9 8 8 7 7 8 8 8 8 7 6 6 5 5 5 5 6 5 5 6 7 6 6 6 7 7 7 7 8 9 9 10 10 9 10 12 14 16 17 18 18 18 18 18 18 18 18 18 18 18 18 18 18 19 19 19 20 20 19 19 19 19 19 20 20 21 20 20 20
18 19 21 22 23 23 24 24 24 25 25 22 18 15 12 10 9 9 8 7 7 7 7 8 8 8 7 6 6 5 5 4 4 5 5 5 6 6 6 5 6 6 8 7 7 8 9 9 9 9 9 9 9 11 15 16 17 18 18 18 18 18 18 18 18 18 18 18 18 19 19 20 20 20 20 20 20 20 20 20 20 20 20 19 18 17
18 19 19 20 21 21 22 22 22 23 23 22 22 20 15 11 9 8 8 6 6 6 7 7 7 7 6 6 5 5 5 4 4 4 4 4 5 6 6 5 6 6 7 6 7 8 9 9 9 9 8 8 9 10 13 15 16 16 16 16 16 16 16 16 17 17 17 18 18 19 19 20 20 21 21 21 21 21 20 20 20 20 19 16 13 11
15 16 18 18 19 19 20 19 19 20 20 21 21 19 14 10 8 8 7 6 6 6 7 7 8 7 7 7 6 6 6 5 5 5 5 5 5 5 5 5 5 5 5 5 6 6 7 7 7 7 7 8 8 8 9 11 11 12 12 13 14 14 15 15 15 15 16 16 17 18 19 20 20 21 22 22 22 22 22 21 20 18 15 13 11 10
12 13 14 15 15 15 15 14 14 16 18 19 19 17 13 9 8 7 7 6 6 6 7 7 8 7 7 7 6 6 5 5 4 4 4 4 4 4 5 5 5 5 4 4 4 4 4 4 5 5 6 7 7 7 6 7 7 7 8 9 10 11 13 13 14 14 15 16 16 17 18 19 20 21 22 22 23 23 23 22 20 16 11 10 10 10
10 11 11 11 11 11 10 10 11 12 13 15 15 13 11 8 7 7 7 6 6 6 7 7 7 7 7 6 5 5 4 3 3 3 4 4 4 4 4 5 5 4 4 3 3 4 4 3 3 4 4 5 6 6 6 6 6 6 6 7 7 8 10 12 13 13 14 14 15 16 17 18 19 20 21 22 23 23 23 23 20 16 10 10 10 10
10 9 9 9 9 9 8 8 8 8 9 9 9 9 9 8 8 7 7 6 6 6 7 7 7 7 7 7 6 5 4 3 3 4 4 4 4 4 5 5 5 4 4 4 4 4 4 4 3 3 4 5 5 6 6 6 6 6 6 6 6 7 9 10 10 11 11 12 14 15 16 18 19 20 21 22 23 23 24 24 21 17 12 11 11 11
9 9 8 9 8 8 8 8 7 7 7 7 7 7 7 7 8 8 7 7 6 7 7 7 7 8 8 8 8 7 5 5 5 6 6 5 4 4 4 5 5 5 4 5 5 5 5 5 4 4 5 5 5 5 6 6 6 6 6 6 6 6 7 7 7 7 8 9 10 12 14 16 18 19 21 21 22 23 24 24 23 20 15 12 11 11
10 9 9 9 9 8 8 8 8 7 7 7 7 7 7 7 7 7 7 7 7 7 7 7 8 8 8 8 8 7 7 6 7 7 7 6 5 4 5 5 6 5 5 4 5 5 5 6 6 5 5 5 5 5 5 6 6 6 5 6 5 5 5 5 5 5 6 6 7 8 10 12 14 17 19 20 21 22 23 24 24 23 20 15 12 11
9 9 9 9 9 8 8 8 8 8 7 7 7 7 7 7 7 7 7 7 7 7 7 7 7 8 8 8 8 8 7 6 7 7 7 6 5 5 5 6 6 5 5 5 5 5 4 6 7 6 5 5 5 4 5 5 5 5 5 5 5 5 5 5 5 5 5 5 6 6 7 8 10 12 15 17 19 21 22 24 24 24 23 20 16 13
9 9 9 9 8 8 8 9 8 8 8 7 7 7 7 7 7 7 7 7 7 7 8 8 8 8 8 8 9 9 8 7 7 7 7 6 6 5 5 5 6 6 5 6 5 5 5 6 6 7 7 6 5 4 4 4 4 4 5 5 5 5 5 5 5 5 5 5 6 6 6 7 8 10 11 15 18 20 22 23 24 25 25 23 21 18
8 8 8 8 8 8 8 8 8 8 7 7 7 7 7 7 7 7 7 7 7 8 8 9 9 9 10 10 10 9 9 8 8 8 8 7 7 6 6 6 6 7 6 6 6 6 6 6 6 7 7 6 5 4 4 3 4 4 4 4 5 5 5 5 6 6 6 6 6 6 6 7 8 9 10 13 16 18 20 22 23 24 25 25 24 22
8 8 8 8 8 8 8 8 8 8 8 7 7 7 8 8 8 8 8 8 8 9 9 8 9 10 13 13 13 12 11 11 11 11 11 9 8 8 8 7 7 8 7 7 7 7 6 6 7 7 6 6 6 6 5 4 4 4 4 4 5 5 5 6 6 6 6 6 7 7 7 7 8 8 9 10 11 12 14 15 18 20 22 23 23 24
8 8 8 8 8 8 8 8 8 8 8 8 8 8 8 9 9 9 8 8 8 9 9 9 9 9 12 13 14 15 14 14 14 13 13 11 10 9 9 8 9 9 8 8 7 7 7 7 7 7 6 6 6 6 6 5 5 5 5 5 5 5 6 6 6 6 6 6 6 7 7 7 7 8 9 9 9 10 10 11 12 14 16 15 17 20
8 8 8 8 8 8 8 8 8 8 8 8 8 8 8 8 8 8 8 8 8 9 10 10 10 9 10 11 12 13 13 12 12 12 12 11 10 9 9 9 9 9 8 8 8 8 8 8 8 8 8 6 6 6 5 5 5 5 5 5 4 4 4 5 5 5 5 6 6 6 6 6 7 8 9 9 10 10 10 9 10 11 12 12 12 13
8 8 8 8 8 8 8 8 8 9 9 8 8 7 7 7 7 7 7 7 7 7 8 8 8 9 9 9 10 11 11 12 12 12 11 12 12 11 9 9 9 8 8 8 8 8 9 9 9 9 9 8 8 8 7 7 7 7 7 6 5 5 5 5 6 6 6 6 6 6 6 6 7 7 8 9 9 9 9 9 9 10 10 10 10 11
9 8 8 7 7 7 8 8 9 9 9 8 8 7 7 6 7 7 7 7 7 7 6 6 7 7 8 8 8 9 9 10 11 11 12 13 13 12 11 10 9 8 8 8 8 9 9 10 10 10 9 8 8 8 7 8 8 7 7 7 7 6 6 6 6 6 6 6 6 6 6 6 6 7 7 8 8 8 9 9 10 10 10 10 10 10
8 8 7 7 7 7 8 9 9 8 8 7 7 7 7 6 7 7 7 7 7 7 7 7 7 7 7 7 7 7 8 8 9 11 11 12 13 13 12 11 10 9 8 8 8 9 10 10 10 10 9 9 8 8 9 8 7 7 7 7 7 5 4 4 4 4 5 5 5 5 5 5 6 6 7 7 8 8 9 10 11 11 11 10 10 10
7 7 7 7 7 7 7 8 8 8 7 8 8 7 7 7 7 8 7 7 7 7 7 6 7 7 7 7 7 7 7 7 9 10 11 12 12 12 12 13 12 11 10 9 9 8 9 9 10 10 9 8 8 9 9 8 8 7 7 7 7 7 5 4 4 4 4 5 5 5 5 5 5 5 5 7 7 8 8 9 9 10 11 10 10 10
7 6 6 6 6 7 7 7 8 8 8 8 8 8 8 8 8 8 7 7 8 8 7 7 6 6 6 6 7 6 6 6 6 7 8 10 12 13 13 12 11 11 11 10 9 9 8 8 8 8 8 8 8 9 9 9 8 8 8 8 8 8 8 7 6 6 5 5 5 5 5 5 4 5 5 6 7 8 8 8 9 10 10 10 10 10
6 6 6 6 6 7 8 8 8 8 8 8 8 8 8 8 7 7 8 8 8 8 7 7 6 6 6 7 6 6 6 6 6 6 6 7 8 9 10 10 10 9 9 9 10 10 9 9 8 8 7 8 8 9 10 9 8 8 8 7 7 7 8 8 7 7 6 6 6 6 6 5 5 5 5 6 7 8 7 8 9 10 11 11 11 11
7 7 7 6 6 7 7 7 8 8 8 8 8 8 8 7 7 7 8 8 8 8 8 7 6 6 7 7 7 6 6 7 6 6 6 6 6 6 7 8 9 9 9 9 10 10 10 10 10 9 8 8 8 9 9 9 9 8 8 7 7 7 7 7 7 7 6 6 6 6 6 5 5 5 6 6 6 7 7 8 8 9 10 11 11 11
8 7 7 7 7 7 7 7 8 8 8 8 8 8 8 8 8 8 8 8 8 8 8 7 7 7 7 7 7 7 7 7 7 6 6 6 6 6 6 6 6 7 8 9 10 10 11 11 12 11 10 9 9 9 9 9 8 8 8 7 7 7 7 7 7 6 6 7 7 7 6 5 5 5 5 5 6 7 8 8 8 9 9 10 10 11
7 7 7 7 7 7 7 7 8 8 8 9 8 8 8 8 9 9 8 8 8 7 7 8 8 8 8 8 7 8 8 7 7 6 6 6 5 5 5 5 6 6 6 7 8 9 10 11 13 13 12 11 11 10 10 9 8 8 7 7 7 7 7 7 7 6 6 7 8 8 7 6 5 5 4 5 6 8 8 8 8 8 9 10 10 11
7 7 7 7 7 7 7 7 8 8 8 9 9 9 8 8 8 8 7 7 7 7 7 8 8 8 8 8 8 8 8 7 7 6 6 5 5 5 5 6 6 6 5 5 6 7 7 8 10 13 15 15 14 12 10 9 9 8 8 7 7 7 7 7 7 6 6 7 7 7 8 7 6 5 5 6 7 8 8 8 8 7 8 10 10 11
7 7 6 7 7 7 7 7 7 8 8 9 9 9 9 8 8 8 7 7 7 7 7 8 8 8 9 9 9 8 8 8 7 7 7 5 5 5 6 6 6 6 5 5 5 5 4 5 6 8 12 16 18 17 12 10 9 8 8 8 7 7 7 7 6 6 7 6 6 6 7 7 7 7 7 6 7 7 8 8 8 7 8 9 10 11
Wind_Direction
274 276 276 275 274 274 272 271 271 271 272 271 272 272 273 272 271 270 270 270 271 272 273 273 275 276 278 280 282 283 285 287 289 291 293 295 296 296 296 295 294 294 293 294 294 295 295 295 294 294 293 294 294 295 296 297 298 298 299 300 302 303 305 305 306 307 307 307 306 306 308 312 314 311 289 262 246 243 281 348 7 14 14 14 10 1
273 274 273 271 271 271 270 269 268 267 268 270 271 271 272 272 272 271 270 270 269 270 271 272 273 275 276 278 281 283 284 287 289 291 293 295 295 296 295 294 294 294 294 294 295 295 294 293 292 292 291 292 292 293 294 295 296 296 297 297 297 298 298 299 300 301 302 302 302 301 302 306 310 315 318 312 312 324 344 356 0 1 1 3 2 356
275 274 271 270 270 269 270 270 268 267 267 269 270 271 272 272 272 271 270 269 268 268 268 270 272 274 275 277 280 282 284 286 289 291 293 294 295 295 295 295 294 294 295 295 294 294 292 291 290 290 289 290 290 291 292 293 293 293 294 294 294 294 294 294 295 297 298 298 297 297 297 299 303 309 318 326 334 341 347 348 346 345 346 352 353 350
275 274 273 273 271 270 270 271 271 270 269 269 270 271 271 271 270 269 268 268 268 268 267 268 270 272 275 276 278 280 282 285 288 290 293 294 295 296 296 295 295 295 295 294 293 292 290 289 288 288 288 288 289 289 289 290 290 291 293 294 295 296 297 296 297 297 297 296 294 293 292 294 297 303 313 322 330 336 340 340 336 334 336 343 346 345
273 272 274 274 273 272 270 271 272 272 271 271 271 271 270 269 269 268 268 267 267 267 267 268 269 270 272 274 276 279 282 285 287 290 292 294 295 295 296 295 295 294 294 293 292 290 289 288 287 286 286 286 286 286 286 287 288 290 294 297 299 301 302 302 301 300 299 296 293 291 290 291 293 299 308 316 324 330 335 336 334 331 330 335 338 339
272 272 273 274 274 275 275 273 272 272 272 271 271 270 269 267 266 266 267 267 267 267 267 268 269 270 271 273 276 278 281 284 287 289 291 293 294 294 294 294 293 293 292 292 291 289 288 286 285 284 283 283 283 283 284 285 288 291 295 298 300 301 302 302 302 301 300 297 294 292 291 291 293 298 305 312 318 324 329 332 331 328 326 328 331 333
273 272 273 273 273 273 274 272 270 270 271 272 271 270 268 266 265 265 265 266 267 268 269 269 269 269 269 271 274 277 281 284 286 288 290 291 292 292 292 292 292 292 292 291 290 288 287 284 283 281 280 280 281 283 285 288 291 294 296 298 299 300 300 300 300 299 298 296 295 294 293 294 295 298 303 307 312 317 323 326 326 325 323 324 326 329
274 273 272 272 272 272 271 269 268 268 269 271 272 272 271 269 267 267 267 267 266 266 267 267 267 267 268 270 273 276 279 282 284 286 288 289 290 291 291 292 292 292 292 291 289 288 285 283 281 280 279 280 283 286 290 292 293 294 295 296 297 297 297 298 297 296 295 294 294 294 295 295 296 298 300 302 306 311 315 319 321 321 321 321 323 326
272 274 273 272 273 275 276 273 270 268 268 269 270 271 272 272 271 270 269 267 265 263 263 265 266 267 268 270 272 274 276 279 280 283 285 287 289 290 291 292 292 292 291 290 289 287 284 282 282 281 282 284 287 289 291 292 292 293 293 293 294 294 294 294 293 293 293 292 293 293 294 294 295 295 296 298 302 305 309 312 315 317 318 318 319 321
267 270 272 271 271 272 274 274 272 269 266 265 265 266 268 270 272 272 270 267 264 261 261 264 267 269 271 272 273 275 278 279 281 282 284 286 288 290 291 291 291 290 289 288 287 285 283 282 282 283 284 286 287 288 289 290 290 290 290 290 291 291 290 290 290 290 290 290 291 291 292 292 292 292 293 295 297 300 303 306 309 312 313 312 312 314
264 264 267 269 268 267 265 268 270 269 265 262 260 258 257 260 265 269 271 270 268 265 263 264 266 270 275 278 279 280 282 282 283 284 285 286 287 288 289 288 288 287 286 285 283 282 281 281 281 282 283 283 284 284 285 286 287 287 288 288 288 288 287 286 287 287 288 288 289 289 289 289 289 289 290 292 294 296 298 301 303 305 306 305 305 306
264 265 267 270 271 271 267 266 265 263 259 259 260 261 261 259 261 265 269 271 271 270 269 268 268 271 275 281 284 285 285 284 284 285 286 286 286 286 287 286 285 283 282 280 279 277 277 277 277 278 279 279 280 280 281 282 284 284 285 285 285 285 284 283 284 284 285 286 286 286 285 285 285 286 287 289 290 292 294 296 297 299 300 299 299 299
262 265 268 270 270 269 266 265 264 263 264 269 276 279 280 277 273 271 270 271 272 273 274 274 274 274 275 279 283 284 284 283 283 283 283 283 284 284 284 283 281 280 279 277 273 271 271 272 273 274 275 275 276 277 277 278 280 281 281 281 281 280 280 280 280 281 282 283 282 282 281 281 282 283 284 286 287 289 290 292 293 295 296 296 296 296
258 261 263 266 267 267 266 270 276 281 284 285 286 286 286 285 282 278 273 272 272 273 274 276 277 278 278 279 279 279 280 280 281 280 279 279 279 280 281 280 280 279 278 275 272 268 266 267 269 271 272 272 273 274 273 274 274 274 275 275 275 275 276 276 276 276 277 277 277 277 277 277 278 280 281 283 284 286 287 289 290 292 293 294 295 295
273 278 282 282 281 281 282 286 288 290 290 289 288 286 284 282 279 276 273 273 274 276 277 279 280 280 279 277 276 274 274 275 276 277 277 276 276 277 279 280 280 279 277 275 272 269 266 265 265 267 268 268 268 268 269 268 268 269 270 271 271 271 271 271 271 271 270 270 270 271 271 273 275 277 279 281 282 283 284 286 287 289 290 292 293 294
292 293 292 291 290 289 288 290 290 290 290 289 288 287 285 283 281 279 277 278 280 281 281 282 281 280 276 272 270 268 268 270 272 274 277 278 277 278 280 282 282 281 278 275 273 270 266 263 262 264 266 270 272 274 276 271 269 269 269 269 269 269 268 268 267 265 264 263 264 265 267 269 272 274 277 279 280 281 282 283 285 286 288 289 291 292
292 291 290 289 288 288 289 289 289 289 290 290 288 287 285 286 285 284 282 281 281 280 277 277 278 279 279 274 268 263 263 267 271 274 278 279 279 280 281 282 283 282 281 278 275 272 269 266 265 266 268 273 277 279 280 278 277 275 273 272 270 269 267 266 264 263 261 261 261 262 264 266 269 272 275 276 278 279 280 280 282 283 285 287 288 290
290 290 290 289 288 289 291 292 291 289 289 289 288 287 287 286 285 284 282 280 277 275 273 273 272 273 277 277 272 266 264 268 272 276 278 279 280 281 281 280 280 280 281 279 277 275 272 269 268 269 271 277 280 282 284 285 284 282 280 278 275 273 271 268 266 264 263 262 262 262 263 265 267 269 271 273 274 275 276 277 279 280 282 284 285 286
291 290 289 289 289 290 291 290 289 289 288 288 290 291 289 287 285 283 280 277 273 271 270 269 267 266 268 270 272 272 269 270 273 276 277 279 280 280 280 278 278 279 280 279 279 278 275 271 268 269 273 278 281 284 286 287 287 287 286 283 281 278 275 273 270 269 267 266 265 265 264 265 266 267 268 269 270 271 272 274 275 277 278 280 282 283
291 290 289 290 291 289 286 284 285 286 288 290 290 290 288 286 283 280 275 271 268 266 265 265 264 264 265 268 271 272 270 269 271 273 275 278 280 281 280 279 279 280 280 281 281 281 280 275 273 273 276 279 282 284 286 287 288 288 288 286 283 281 278 275 274 272 271 270 269 268 267 266 265 264 264 265 265 267 268 269 271 273 275 277 278 279
289 288 287 287 287 286 285 286 288 290 291 291 290 286 283 281 277 274 270 269 268 268 266 265 265 266 269 272 273 272 271 268 269 272 277 278 278 278 279 279 280 280 281 281 281 281 281 280 277 274 274 279 282 284 286 287 288 288 287 286 284 281 278 276 274 273 273 273 273 272 271 268 266 263 262 261 262 262 263 265 267 269 271 272 274 275
283 283 284 282 279 278 280 285 288 290 291 289 285 280 276 274 273 272 273 274 274 272 271 270 271 273 275 275 275 274 270 265 266 270 276 277 276 276 278 277 277 277 277 279 281 283 283 282 280 278 278 281 283 285 286 286 287 287 286 285 283 280 277 275 273 272 273 273 273 274 274 271 268 265 262 260 259 259 260 261 263 265 267 269 270 271
271 274 278 277 275 275 280 286 289 290 290 284 279 275 273 272 274 276 280 279 277 274 273 273 273 272 271 270 270 268 263 259 260 264 269 272 274 275 276 275 274 274 274 278 282 285 286 286 285 284 284 285 285 285 285 285 285 285 284 283 281 279 277 274 272 271 270 271 271 272 272 271 269 267 264 261 259 258 257 258 260 261 263 265 267 268
269 273 277 279 280 282 286 290 292 293 291 287 284 281 279 279 279 279 278 275 274 272 272 271 269 267 264 263 263 261 256 252 251 254 259 266 270 273 275 274 273 273 274 278 283 287 289 288 288 288 287 286 286 285 284 283 283 282 282 281 280 278 277 275 272 270 268 267 267 267 268 268 267 266 264 262 260 258 256 256 257 258 260 262 264 265
281 283 285 288 291 294 296 298 300 300 300 298 296 294 292 291 289 286 282 278 275 274 273 273 272 271 270 268 266 263 258 250 246 247 255 265 271 273 273 272 273 275 277 281 285 288 290 289 289 289 288 286 285 284 283 282 281 281 280 280 279 278 277 275 273 270 267 265 263 263 263 263 264 264 263 262 260 258 255 255 255 256 258 260 261 263
290 292 294 297 300 302 304 305 305 306 306 304 302 299 297 295 292 289 285 282 280 279 279 278 277 277 278 277 274 272 269 259 252 249 255 266 273 274 274 274 275 278 282 285 287 289 288 288 288 288 286 285 284 283 282 281 281 281 280 280 279 278 277 275 272 270 267 264 261 260 259 259 260 260 261 260 259 257 255 254 254 254 255 258 260 261
294 296 298 301 303 306 307 308 308 308 308 307 306 304 301 298 293 288 284 283 284 285 283 280 279 279 278 274 272 271 272 267 261 257 259 268 273 275 276 278 281 283 285 287 287 286 285 283 283 283 282 283 283 284 283 283 282 282 281 280 278 276 275 272 270 267 265 262 259 257 256 255 256 256 256 256 256 255 254 252 252 252 253 255 258 260
296 298 301 302 304 306 307 308 308 309 308 307 306 304 303 299 293 289 287 292 295 294 287 283 283 284 283 280 278 277 275 271 267 265 266 269 271 273 277 281 283 284 286 286 285 281 277 276 276 278 280 282 285 286 286 284 284 283 283 281 279 276 274 272 270 268 266 263 260 257 254 253 252 252 252 252 252 251 251 250 250 250 251 252 254 255
296 299 300 301 303 304 306 306 306 306 305 305 305 305 304 301 296 295 297 303 301 294 286 284 283 284 285 285 284 280 274 269 265 264 264 264 266 269 276 278 278 279 282 283 281 277 270 269 271 274 278 281 283 284 285 286 287 287 287 284 282 281 279 278 276 274 272 268 264 260 256 253 250 249 248 247 247 247 247 246 247 247 248 248 248 249
300 301 301 301 301 302 303 301 300 300 300 302 303 304 304 301 296 294 295 295 289 282 278 277 277 278 279 281 280 276 269 263 258 255 254 257 261 266 271 271 271 271 274 280 283 281 276 273 271 271 274 277 279 281 284 288 290 291 291 288 286 284 282 281 279 277 275 271 267 263 258 254 250 247 245 244 243 243 242 242 242 242 242 242 241 242
307 305 303 302 301 300 298 296 295 295 297 299 299 299 297 291 287 283 281 278 274 272 272 273 273 273 274 275 275 273 270 265 259 253 248 255 261 266 269 270 269 268 268 276 285 290 292 286 281 277 277 278 279 281 283 285 286 287 287 286 284 282 279 278 277 275 273 269 266 262 258 254 251 248 245 242 240 239 238 237 237 236 236 236 236 235
307 304 301 301 301 299 297 295 294 294 295 294 292 289 285 281 278 276 274 272 270 269 269 271 271 270 268 267 267 268 271 272 268 262 255 260 265 268 269 270 271 270 267 267 273 281 289 291 292 291 287 284 282 280 279 278 277 277 277 277 277 276 275 274 273 272 269 266 262 259 255 253 250 247 245 242 239 237 235 233 232 231 230 231 231 231
304 302 301 301 301 300 298 297 296 295 294 292 290 287 283 280 278 275 274 272 270 268 269 270 271 270 268 266 264 264 266 267 265 261 257 259 263 267 267 268 269 269 268 263 262 265 272 279 285 289 287 283 280 277 274 272 269 268 268 270 271 272 272 271 270 269 267 264 260 256 253 250 247 245 243 241 238 236 233 231 229 228 227 228 229 229
302 301 302 303 303 302 301 300 299 298 298 296 295 293 292 287 283 281 278 275 273 270 270 270 271 271 271 269 267 265 263 262 259 257 253 253 257 264 266 265 265 266 266 263 260 259 262 267 273 279 282 280 276 273 271 268 265 263 262 263 265 268 269 268 267 266 265 263 260 256 251 247 243 241 240 238 236 234 232 229 227 226 225 225 226 226
301 302 304 305 305 305 305 304 303 303 303 301 301 300 297 293 289 285 281 278 274 270 267 266 267 268 269 270 270 269 267 266 262 258 252 249 253 260 264 263 262 263 263 262 261 261 264 266 269 273 279 281 279 274 270 266 264 261 258 258 260 263 265 265 266 266 266 265 263 259 252 246 240 236 234 233 232 230 229 228 226 225 223 224 225 226
301 304 306 308 308 308 308 308 307 307 306 305 304 301 298 293 289 284 280 277 273 270 268 265 263 263 262 264 266 268 270 271 269 263 256 251 251 255 260 260 260 260 261 262 262 263 266 269 270 272 274 277 278 277 273 268 264 261 258 257 258 260 262 263 264 265 267 265 264 262 258 252 245 237 231 228 227 226 226 226 225 224 223 223 224 226
302 304 307 309 310 310 310 310 310 309 308 307 305 302 299 294 290 285 281 276 273 270 269 267 265 262 260 261 262 265 269 271 269 263 256 251 249 251 255 258 258 256 256 258 261 262 265 269 271 271 269 270 271 275 277 276 272 266 262 261 261 262 262 261 261 261 262 261 261 260 260 260 257 250 241 229 224 223 223 224 224 223 222 222 223 226
304 306 309 311 312 313 313 312 311 310 309 308 306 303 300 296 291 287 282 277 273 270 268 267 266 264 262 263 263 264 266 266 264 260 252 247 244 245 249 254 254 252 250 253 257 260 263 266 268 268 267 266 267 270 275 277 276 273 271 269 267 265 262 259 256 254 254 255 255 255 254 255 256 255 250 236 225 219 218 219 220 221 220 220 222 224
307 309 311 313 314 315 315 313 311 309 308 306 303 301 299 296 292 289 285 280 276 271 268 267 266 265 263 263 262 262 262 262 260 256 251 245 241 240 243 248 250 250 248 248 250 252 255 258 261 263 266 268 269 269 270 271 272 274 277 276 270 263 256 252 248 246 246 248 250 250 249 245 244 244 244 236 226 217 212 211 212 212 213 214 217 221
308 310 311 313 315 315 313 310 308 307 306 303 301 299 298 297 295 292 287 283 278 274 270 268 266 264 263 261 260 260 259 259 258 256 253 246 242 239 240 244 247 249 247 245 244 244 247 251 255 258 260 264 268 269 269 266 267 269 275 276 271 264 257 254 251 248 246 246 247 248 249 246 243 240 240 235 228 220 213 209 206 205 205 205 206 210
309 310 311 312 313 312 310 307 306 305 304 303 302 302 301 300 299 296 291 286 282 278 274 271 268 267 265 262 260 259 257 256 255 254 253 250 246 243 241 242 244 246 245 244 242 241 242 246 251 254 255 258 262 265 265 263 263 264 267 267 269 270 271 266 260 255 250 248 247 248 250 250 249 247 246 244 238 230 220 214 208 204 202 204 203 202
307 308 309 310 312 312 310 308 306 305 305 305 304 303 302 302 301 300 298 294 290 286 282 280 279 278 277 273 268 263 259 256 254 253 252 251 249 246 245 243 242 242 242 242 242 241 240 243 247 250 251 254 257 260 261 261 260 259 257 260 265 271 273 264 255 248 245 245 245 244 244 244 244 244 246 248 246 240 228 219 211 206 203 203 204 205
304 304 305 306 307 308 309 309 309 309 309 308 307 305 303 303 302 301 299 297 296 294 292 289 288 287 286 283 279 274 267 260 256 254 253 251 249 248 246 244 243 241 240 241 243 243 242 242 243 246 248 250 253 256 260 260 259 255 253 254 257 262 267 259 250 243 242 243 244 243 242 242 240 239 238 242 245 244 234 220 212 209 206 204 203 204
297 298 299 302 305 309 312 313 313 312 311 310 308 307 307 306 305 304 302 299 298 297 296 294 290 287 283 282 281 280 276 269 261 256 254 251 248 246 245 243 242 240 237 239 242 244 245 243 243 243 244 245 248 251 255 256 256 253 250 248 248 248 252 257 259 257 255 253 252 252 254 261 265 262 252 244 244 245 240 225 215 209 207 207 206 205
292 294 298 303 309 313 315 315 313 312 311 310 309 309 309 310 310 309 306 303 301 301 299 298 294 290 286 286 286 285 284 280 273 265 260 256 253 250 247 243 240 238 236 236 238 240 243 245 245 244 242 241 243 246 250 252 253 253 250 246 244 245 247 251 254 255 256 257 256 256 258 266 274 276 267 251 244 241 240 229 219 211 206 206 206 207
295 298 302 307 310 313 313 313 313 312 311 309 309 310 310 312 312 310 308 306 305 304 302 300 296 292 291 292 293 292 290 287 284 280 273 265 258 253 248 244 241 237 234 234 235 236 239 243 245 246 245 243 243 244 245 247 249 251 251 246 244 244 246 247 247 247 249 252 253 253 253 254 256 256 253 249 246 245 247 236 222 213 207 206 206 206
303 304 306 308 310 311 311 313 313 312 310 309 309 310 311 313 312 312 310 309 307 305 303 300 296 292 290 292 293 293 292 290 289 287 283 278 270 262 255 250 245 242 238 236 234 234 235 238 240 242 243 245 246 247 245 244 244 246 247 244 243 243 244 244 242 241 242 245 246 247 247 246 245 245 245 246 247 249 252 244 230 216 208 207 206 206
305 305 305 307 308 310 312 313 314 313 311 309 308 309 311 313 314 315 312 312 310 307 305 303 300 296 294 293 292 291 291 291 290 289 286 284 280 275 266 261 255 250 247 244 242 239 237 236 235 236 237 242 247 250 250 246 244 243 243 242 241 241 243 242 240 238 237 239 240 240 240 239 240 242 245 243 240 239 241 243 233 218 206 207 207 207
304 302 303 305 308 310 311 314 314 313 311 310 310 310 311 313 315 316 313 312 310 308 307 306 304 302 299 297 295 293 292 290 288 287 286 285 284 283 279 273 268 263 259 254 251 248 245 240 236 233 232 235 241 248 251 248 246 243 242 240 239 241 242 242 239 235 233 235 236 236 234 235 238 242 246 242 236 232 232 240 235 221 206 204 205 207
302 300 301 303 306 308 310 312 313 313 312 311 311 312 312 314 316 316 313 311 310 309 308 307 305 303 301 298 297 296 295 292 290 288 287 287 287 287 285 282 278 273 268 262 256 251 249 245 239 233 229 229 232 237 245 246 246 243 241 239 238 238 240 240 238 233 230 232 232 231 230 231 232 234 237 238 237 235 235 240 239 227 208 200 202 206
306 303 303 303 305 307 309 311 311 312 312 312 312 312 313 314 315 315 314 314 313 311 309 307 305 302 299 299 298 297 296 295 293 292 291 290 288 287 285 283 281 278 275 271 265 259 252 250 245 237 230 224 223 224 233 237 240 240 240 238 235 234 236 238 236 233 230 230 229 227 225 225 225 225 226 228 230 232 235 238 238 231 212 199 199 203